User: anonymous   Login
Location: Unspecified
(0.0000°N, 0.0000°E)
Time: 15:53:43
(UTC+00:00)
Language:

SURFSAT - Orbit

View from above orbital plane
View from above orbital plane
View from above satellite
View from above satellite

Ground track
Ground track

The orbit data is extracted from the following two-line orbital elements,

1 43614U 18070B   21333.90155328  .00009685  00000-0  20780-3 0  9997
2 43614  93.0254  15.0213 0016109  82.5960 277.7128 15.44576417180188
Epoch (UTC): 29 November 2021 21:38:14
Eccentricity: 0.0016109
inclination: 93.0254°
perigee height: 421 km
apogee height: 443 km
right ascension of ascending node: 15.0213°
argument of perigee: 82.5960°
revolutions per day: 15.44576417
mean anomaly at epoch: 277.7128°
orbit number at epoch: 18018

The dashed part of the orbit path shows where the satellite is in the earth's shadow,  

DLR